#timestamp,LO_Frequency,Hit,StdDev 
1510862415.4,286047001.6,N
1510862435.2,286047002.1,N
1510862455.0,286047004.2,N
1510862455.9,286047004.2,N
1510862475.8,286047009.0,N
1510862495.6,286047002.9,N
1510862515.4,286047004.3,N
1510862535.3,286047001.3,N
1510862555.1,286047001.5,N
1510862556.0,286047001.5,N
1510862575.8,286046999.6,N
1510862595.7,286046993.4,N
1510862615.5,286046996.1,N
1510862635.3,286046996.1,N
1510862655.1,286046997.6,N
1510862675.9,286046996.2,N
1510862695.7,286046993.1,N
1510862715.5,286046994.9,N
1510862735.4,286046994.2,N
1510862755.2,286046988.7,N
1510862775.0,286046990.3,N
1510862775.9,286046990.3,N
1510862795.8,286046989.5,N
1510862815.6,286046984.8,Y
1510862835.4,286046989.4,P
1510862855.3,286046990.0,N
1510862875.1,286046983.9,P
1510862895.8,286046989.8,N
1510862915.7,286046992.5,N
1510862935.5,286046991.8,N
1510862955.3,286046991.2,N
1510862975.2,286046991.2,N
1510862995.9,286046994.6,N
1510863015.7,286046995.0,N
1510863035.5,286047002.8,N
1510863055.4,286047003.8,N
1510863075.2,286047000.9,N
1510863095.0,286046999.8,N
1510863095.9,286046999.8,N
1510863115.8,286046998.0,N
1510863135.6,286046995.8,N
1510863155.4,286046993.2,N
1510863175.3,286046989.5,N
1510863195.1,286046988.0,N
1510863215.8,286046986.9,N
1510863235.7,286046984.7,N
1510863255.5,286046991.1,N
1510863275.3,286046984.0,N
1510863295.2,286046984.6,N
1510863315.9,286046985.7,N
1510863335.7,286046982.3,Y
1510863355.6,286046982.2,P
1510863375.4,286046979.8,P
1510863395.2,286046978.8,P
1510863415.1,286046979.0,Y
1510863416.0,286046979.0,P
1510863435.8,286046997.4,N
1510863455.6,286046993.3,N
1510863475.5,286046997.7,N
1510863495.3,286046996.3,N
1510863515.1,286047001.5,N
1510863535.8,286047005.9,N
1510863555.7,286047001.3,N
1510863575.5,286047004.9,N
1510863595.3,286047006.7,N
1510863615.2,286047015.6,N
1510863635.0,286047016.7,N
1510863635.9,286047016.7,N
1510863655.7,286047017.0,N
1510863675.6,286047026.4,N
1510863695.4,286047028.5,N
1510863715.2,286047030.7,N
1510863735.1,286047032.5,N
1510863736.0,286047032.5,N
1510863755.8,286047034.0,N
1510863775.6,286047038.4,N
1510863795.5,286047042.9,N
1510863815.3,286047040.2,N
1510863835.1,286047048.2,N
1510863855.9,286047055.1,N
1510863875.7,286047056.1,N
1510863895.5,286047057.7,N
1510863915.4,286047071.0,Y
1510863935.2,286047046.1,P
1510863955.0,286047052.0,P
1510863955.9,286047052.0,P
1510863975.8,286047058.3,Y
1510863995.6,286047022.7,P
1510864015.4,286047029.8,P
1510864035.2,286047029.1,P
1510864055.1,286047027.9,Y
1510864056.0,286047027.9,P
1510864075.8,286047000.5,N
1510864095.7,286047007.1,N
1510864115.5,286047009.1,N
1510864135.3,286047009.8,N
1510864155.1,286047006.6,N
1510864175.9,286047012.7,N
1510864195.7,286047011.1,N
1510864215.5,286047009.5,N
1510864235.4,286047012.2,N
1510864255.2,286047006.5,N
1510864275.0,286047004.5,N
1510864275.9,286047004.5,N
1510864295.8,286046999.0,N
1510864315.6,286047000.7,N
1510864335.4,286046999.0,N
1510864355.3,286046993.4,N
1510864375.1,286046993.8,N
1510864376.0,286046993.8,N
1510864395.8,286046992.6,N
1510864415.7,286046988.1,N
1510864435.5,286046982.2,N
1510864455.3,286046977.5,N
1510864475.1,286046981.3,N
1510864495.9,286046986.7,N
1510864515.7,286046981.4,N
1510864535.5,286046976.7,N
1510864555.4,286046978.6,N
1510864575.2,286046976.2,N
1510864595.0,286046977.8,N
1510864595.9,286046977.8,N
1510864615.8,286046973.9,N
1510864635.6,286046968.3,N
1510864655.4,286046965.3,N
1510864675.3,286046961.5,N
1510864695.1,286046958.3,N
1510864696.0,286046958.3,N
1510864715.8,286046952.0,Y
1510864735.7,286046966.7,P
1510864755.5,286046972.5,N
1510864775.3,286046979.2,N
1510864795.2,286046982.3,N
1510864815.9,286046979.0,N
1510864835.7,286046975.9,Y
1510864855.6,286046990.4,P
1510864875.4,286046983.6,N
1510864895.2,286046975.8,P
1510864915.1,286046980.4,Y
1510864916.0,286046980.4,P
1510864935.8,286046990.1,P
1510864955.6,286046987.6,N
1510864975.5,286046984.3,Y
1510864995.3,286047001.5,P
1510865015.1,286047000.0,N
1510865035.9,286046998.7,N
1510865055.7,286046995.3,N
1510865075.5,286046993.0,N
1510865095.4,286046987.7,N
1510865115.2,286046988.5,N
1510865135.0,286046990.8,N
1510865135.9,286046990.8,N
1510865155.8,286046992.6,N
1510865175.6,286046990.7,N
1510865195.4,286046989.2,N
1510865215.3,286046982.2,Y
1510865235.1,286046993.0,P
1510865236.0,286046993.0,P
1510865255.8,286046987.6,P
1510865275.7,286046988.1,Y
1510865295.5,286046992.6,P
1510865315.3,286046989.4,P
1510865335.1,286046987.4,P
1510865355.9,286046981.0,Y
1510865375.7,286046989.4,P
1510865395.6,286046988.1,P
1510865415.4,286046983.5,P
1510865435.2,286046976.3,Y
1510865455.1,286046984.1,P
1510865456.0,286046984.1,P
1510865475.8,286046989.3,P
1510865495.6,286046992.8,Y
1510865515.5,286047005.7,P
1510865535.3,286047003.4,N
1510865555.1,286047006.7,N
1510865575.9,286047004.6,N
1510865595.7,286047003.6,N
1510865615.5,286047000.5,N
1510865635.3,286046998.9,N
1510865655.2,286046995.6,N
1510865675.0,286046996.0,N
1510865675.9,286046996.0,N
1510865695.7,286046993.6,N
1510865715.6,286046992.3,N
1510865735.4,286046997.9,N
1510865755.2,286046996.2,N
1510865775.1,286046991.9,N
1510865776.0,286046991.9,N
1510865795.8,286046994.8,N
1510865815.6,286046991.9,N
1510865835.5,286046997.6,N
1510865855.3,286046994.0,N
1510865875.1,286046993.1,N
1510865895.9,286046991.9,N
1510865915.7,286046993.7,N
1510865935.5,286047001.1,N
1510865955.3,286046998.4,N
1510865975.2,286047000.8,N
1510865995.0,286046999.3,N
1510865995.9,286046999.3,N
